[[{"header":{"parameterUnit":"m.s-1","parameterCategory":2,"la1":30.2991,"la2":30.254,"lo1":-89.0895,"lo2":-89.0444,"dy":0.0017,"dx":0.0017,"nx":28,"ny":28,"refTime":"2025-06-21T21:00:00:Z","depth":"0","parameterNumber":2,"parameterNumberName":"U-component_of_CURRENTS"},"data":[0,0,0,0,0,0,0,0,0,0,0,0,0,0,0,0,0,0,0,0,0,0,0,0,0,0,0,0,0,0,0,0,0,0,0,0,0,0,0,0,0,0,0,0,0,0,0,0,0,0,0,0,0,0,0,0,0,0,-0.23,-0.2302,0,-0.2451,-0.2452,-0.2454,-0.2551,-0.2552,-0.2552,-0.2553,-0.2747,-0.2751,-0.2755,0,0,0,0,0,0,0,0,0,0,0,0,0,-0.2049,-0.2053,-0.23,-0.2302,-0.2304,-0.2451,-0.2452,-0.2454,-0.2551,-0.2552,-0.2553,-0.2553,-0.2745,-0.275,-0.2756,0,0,0,0,0,0,0,0,0,0,0,0,0,-0.2173,-0.2055,-0.2299,-0.2371,-0.2379,-0.245,-0.2453,-0.2455,-0.255,-0.2552,-0.2553,-0.2554,-0.2743,-0.275,-0.2756,-0.2773,0,0,-0.2777,-0.2779,0,0,0,0,0,0,0,0,-0.2166,-0.2182,-0.2359,-0.2367,-0.2376,-0.2485,-0.2435,-0.2564,-0.255,-0.2483,-0.2553,-0.2555,-0.2664,-0.2677,-0.2699,-0.2783,-0.2791,-0.2777,-0.2781,-0.2784,-0.2786,0,0,0,0,0,0,0,-0.2157,-0.2175,-0.2357,-0.2361,-0.2371,-0.238,-0.24,-0.2459,-0.2564,-0.2489,-0.2497,-0.2517,-0.2668,-0.2692,-0.2704,-0.2794,-0.2777,-0.2783,-0.2787,-0.279,-0.2823,-0.282,0,0,0,0,0,0,-0.2145,-0.2168,-0.2353,-0.2362,-0.2274,-0.2384,-0.2406,-0.2447,-0.2563,-0.2582,-0.2516,-0.2521,-0.268,-0.2696,-0.2712,-0.267,-0.2784,-0.279,-0.2794,-0.2826,-0.2822,-0.2819,0,0,0,0,0,0,-0.2139,-0.2161,-0.2347,-0.2268,-0.2293,-0.2388,-0.2433,-0.2449,-0.2475,-0.2583,-0.2603,-0.2525,-0.2682,-0.2702,-0.2745,-0.2681,-0.2793,-0.2799,-0.2829,-0.2825,-0.282,-0.2632,0,0,0,0,0,0,-0.2132,-0.2158,-0.2157,-0.2269,-0.2297,-0.2372,-0.2433,-0.2452,-0.2487,-0.2495,-0.2597,-0.2617,-0.2684,-0.2734,-0.2751,-0.2693,-0.2804,-0.2833,-0.2827,-0.2822,-0.2642,-0.2622,-0.2604,0,0,0,0,0,-0.2122,-0.21,-0.2157,-0.2178,-0.2303,-0.2371,-0.2385,-0.2455,-0.2485,-0.2484,-0.2547,-0.2614,-0.2708,-0.2738,-0.2759,-0.27,-0.2836,-0.2829,-0.2822,-0.2651,-0.2626,-0.2604,0,0,0,0,0,0,-0.1967,-0.2112,-0.2176,-0.2195,-0.2279,-0.2388,-0.2381,-0.2443,-0.2492,-0.2498,-0.2598,-0.262,-0.2619,-0.2689,-0.2719,-0.2688,-0.2774,-0.2771,-0.2636,-0.2613,-0.2595,-0.2563,-0.281,0,0,0,0,0,-0.1942,-0.1972,-0.2116,-0.2122,-0.2168,-0.2278,-0.2306,-0.2368,-0.2439,-0.2462,-0.2532,-0.2587,-0.2604,-0.2636,-0.2672,-0.2681,-0.2687,-0.2647,-0.2628,-0.2612,-0.2596,-0.2525,-0.2497,-0.2796,-0.2796,-0.2796,0,0,-0.1882,-0.196,-0.1978,-0.2092,-0.2162,-0.2199,-0.2296,-0.2339,-0.2346,-0.2475,-0.2481,-0.2526,-0.2588,-0.2576,-0.2582,-0.2634,-0.2527,-0.2603,-0.2588,-0.2582,-0.2515,-0.2486,-0.246,-0.2791,-0.2792,-0.2793,0,0,-0.1776,-0.1857,-0.1862,-0.1932,-0.2042,-0.2112,-0.2124,-0.2243,-0.2271,-0.2306,-0.236,-0.2362,-0.2445,-0.2443,-0.2459,-0.2359,-0.2418,-0.2376,-0.2271,-0.2201,-0.2175,-0.2153,-0.2109,-0.2084,-0.2378,-0.2378,-0.2378,0,-0.1706,-0.1751,-0.1861,-0.1888,-0.1932,-0.2068,-0.2084,-0.212,-0.2224,-0.2227,-0.2284,-0.2305,-0.2363,-0.2301,-0.2268,-0.231,-0.2301,-0.2355,-0.2173,-0.2152,-0.2132,-0.2092,-0.2068,-0.2368,-0.2369,-0.237,-0.2371,0,-0.1635,-0.1668,-0.1667,-0.1762,-0.1802,-0.1839,-0.1937,-0.1958,-0.2018,-0.2061,-0.2032,-0.209,-0.211,-0.2103,-0.217,-0.2048,-0.2094,-0.2145,-0.2228,-0.209,-0.2058,-0.2035,-0.2354,-0.2357,-0.236,-0.2363,0,0,-0.1533,-0.1611,-0.1618,-0.1659,-0.1759,-0.1804,-0.178,-0.1825,-0.1821,-0.1856,-0.1826,-0.1815,-0.1859,-0.1876,-0.1926,-0.187,-0.1725,-0.1953,-0.1954,-0.1902,-0.1581,-0.1511,-0.1482,-0.1748,-0.1743,-0.1739,-0.1609,0,-0.1474,-0.149,-0.1536,-0.155,-0.1593,-0.1678,-0.1658,-0.1691,-0.173,-0.1727,-0.172,-0.172,-0.1767,-0.1789,-0.1718,-0.1755,-0.166,-0.1756,-0.173,-0.1729,-0.1677,-0.145,-0.1383,-0.1252,-0.1588,-0.1584,-0.1582,0,-0.143,-0.1455,-0.1453,-0.1511,-0.1536,-0.1538,-0.1573,-0.1578,-0.1567,-0.1593,-0.1551,-0.1587,-0.1513,-0.1583,-0.1475,-0.1544,-0.1527,-0.1528,-0.1525,-0.151,-0.1615,-0.1447,-0.12,-0.1195,-0.1548,-0.1551,-0.1553,0,-0.1377,-0.1414,-0.1411,-0.1438,-0.1498,-0.1491,-0.152,-0.1528,-0.1542,-0.151,-0.1517,-0.1434,-0.1434,-0.1361,-0.1374,-0.1426,-0.126,-0.1341,-0.1227,-0.1226,-0.1186,-0.1187,-0.0921,-0.1186,-0.1186,-0.1187,-0.1187,0,-0.1341,-0.135,-0.1393,-0.141,-0.1416,-0.1463,-0.1464,-0.1476,-0.1477,-0.1458,-0.1454,-0.141,-0.138,-0.1312,-0.1299,-0.1177,-0.1184,-0.1138,-0.1148,-0.1118,-0.1114,-0.1131,-0.1186,-0.1182,-0.1183,-0.1184,-0.1185,0,-0.1296,-0.1322,-0.1338,-0.138,-0.14,-0.141,-0.1469,-0.1481,-0.1473,-0.1443,-0.143,-0.1384,-0.1275,-0.1224,-0.1125,-0.1086,-0.0957,-0.0941,-0.0916,-0.092,-0.0806,-0.0856,-0.0659,-0.0638,-0.0772,-0.0769,-0.0766,0,-0.1271,-0.127,-0.1318,-0.1348,-0.1371,-0.1407,-0.1447,-0.1476,-0.1486,-0.1411,-0.139,-0.1276,-0.1148,-0.0968,-0.0883,-0.0755,-0.0812,-0.0637,-0.0686,-0.0704,-0.0769,-0.085,-0.0855,-0.0572,-0.0568,-0.0565,-0.0562,0,-0.1222,-0.1232,-0.1251,-0.1318,-0.1368,-0.139,-0.1433,-0.1429,-0.1427,-0.136,-0.1206,-0.1076,-0.0912,-0.0708,-0.0578,-0.0531,-0.0618,-0.0563,-0.0569,-0.0532,-0.0614,-0.0634,-0.0797,-0.0533,-0.0536,-0.0538,-0.0539,-0.0541,-0.1178,-0.1184,-0.1223,-0.1285,-0.1338,-0.1325,-0.1259,-0.1271,-0.1187,-0.0989,-0.0979,-0.0705,-0.0525,-0.0306,-0.032,-0.027,-0.0373,-0.026,-0.0304,-0.0374,-0.036,-0.0448,-0.021,-0.0211,-0.0212,-0.0213,-0.0214,0,-0.1131,-0.1154,-0.1207,-0.1228,-0.122,-0.1261,-0.1219,-0.109,-0.0894,-0.0761,-0.0542,-0.0211,-0.004,-0.0006,0.0052,0.0013,-0.0088,-0.0043,-0.0147,-0.0156,-0.0193,-0.019,0.005,0.005,0.005,0.005,0.005,0.005,-0.111,-0.1138,-0.1176,-0.1119,-0.1095,-0.0949,-0.0852,-0.0677,-0.0536,-0.0216,-0.0004,0.0115,0.0215,0.0292,0.0219,0.0148,0.0052,0.002,-0.0037,-0.009,-0.0116,-0.0141,-0.0144,0.0101,0.0101,0.0014,0.0014,0.0013]},{"header":{"parameterUnit":"m.s-1","parameterCategory":2,"la1":30.2991,"la2":30.254,"lo1":-89.0895,"lo2":-89.0444,"dy":0.0017,"dx":0.0017,"nx":28,"ny":28,"refTime":"2025-06-21T21:00:00:Z","depth":"0","parameterNumber":3,"parameterNumberName":"V-component_of_CURRENTS"},"data":[0,0,0,0,0,0,0,0,0,0,0,0,0,0,0,0,0,0,0,0,0,0,0,0,0,0,0,0,0,0,0,0,0,0,0,0,0,0,0,0,0,0,0,0,0,0,0,0,0,0,0,0,0,0,0,0,0,0,-0.0443,-0.0441,0,-0.0231,-0.0229,-0.0226,-0.0074,-0.0073,-0.0072,-0.0071,0.012,0.0124,0.0128,0,0,0,0,0,0,0,0,0,0,0,0,0,-0.0594,-0.0592,-0.0444,-0.0441,-0.0439,-0.0232,-0.0229,-0.0226,-0.0075,-0.0073,-0.0072,-0.0071,0.0118,0.0123,0.0128,0,0,0,0,0,0,0,0,0,0,0,0,0,-0.0468,-0.0592,-0.0444,-0.034,-0.0329,-0.0233,-0.0229,-0.0225,-0.0075,-0.0073,-0.0072,-0.007,0.0117,0.0123,0.0129,0.0137,0,0,0.0148,0.0151,0,0,0,0,0,0,0,0,-0.0476,-0.0462,-0.0358,-0.0347,-0.0334,-0.018,-0.0211,-0.0106,-0.0075,-0.0169,-0.0071,-0.007,0.0015,0.003,0.007,0.0146,0.0154,0.0148,0.0152,0.0155,0.0157,0,0,0,0,0,0,0,-0.0485,-0.047,-0.0357,-0.0355,-0.0341,-0.0262,-0.0243,-0.019,-0.0087,-0.016,-0.015,-0.013,0.0022,0.0063,0.0075,0.0157,0.0148,0.0154,0.0158,0.016,0.027,0.0269,0,0,0,0,0,0,-0.0524,-0.0479,-0.0364,-0.0351,-0.0405,-0.0261,-0.024,-0.0229,-0.0086,-0.0064,-0.0132,-0.0124,0.0052,0.0068,0.0082,0.0132,0.0155,0.0161,0.0164,0.0271,0.027,0.0269,0,0,0,0,0,0,-0.0528,-0.0516,-0.0372,-0.0411,-0.0388,-0.0262,-0.0249,-0.0226,-0.018,-0.0065,-0.0042,-0.0111,0.0054,0.0074,0.0145,0.0139,0.0163,0.0169,0.0272,0.027,0.0269,0.021,0,0,0,0,0,0,-0.0533,-0.0519,-0.0522,-0.0415,-0.0387,-0.0321,-0.025,-0.0223,-0.0172,-0.016,-0.004,-0.002,0.0057,0.0135,0.0151,0.0148,0.0174,0.0273,0.0271,0.027,0.0213,0.0207,0.0202,0,0,0,0,0,-0.054,-0.0545,-0.0524,-0.051,-0.0397,-0.0322,-0.03,-0.0202,-0.0173,-0.0156,-0.0067,-0.0023,0.0136,0.014,0.0159,0.0158,0.0273,0.0272,0.027,0.0215,0.0208,0.0202,0,0,0,0,0,0,-0.0593,-0.0527,-0.0502,-0.0483,-0.0415,-0.0297,-0.0272,-0.0218,-0.0134,-0.0124,-0.0019,0.0007,0.0065,0.0109,0.0111,0.018,0.0205,0.0207,0.0157,0.0151,0.0145,0.0125,0.0179,0,0,0,0,0,-0.0618,-0.0612,-0.0529,-0.0512,-0.0492,-0.0392,-0.035,-0.0289,-0.0202,-0.0163,-0.008,-0.0002,0.0069,0.0109,0.0175,0.0214,0.023,0.0218,0.0212,0.0207,0.0201,0.02,0.0193,0.0263,0.0263,0.0263,0,0,-0.0629,-0.0595,-0.0587,-0.0525,-0.0469,-0.043,-0.0362,-0.031,-0.0265,-0.016,-0.0085,-0.0017,0.0074,0.0134,0.016,0.0173,0.0198,0.0205,0.0201,0.0197,0.0197,0.019,0.0184,0.0262,0.0262,0.0262,0,0,-0.0647,-0.063,-0.063,-0.0591,-0.0526,-0.0464,-0.0461,-0.036,-0.0306,-0.0234,-0.0148,-0.0084,0.002,0.0094,0.0143,0.0135,0.0168,0.0142,0.0105,0.0104,0.0098,0.0093,0.0114,0.0111,0.014,0.014,0.014,0,-0.0661,-0.0651,-0.0613,-0.0602,-0.0569,-0.0491,-0.0469,-0.0407,-0.029,-0.0254,-0.0224,-0.0077,0.0004,0.008,0.0093,0.0124,0.0128,0.0129,0.0096,0.0091,0.0087,0.011,0.0108,0.0137,0.0137,0.0137,0.0138,0,-0.067,-0.0666,-0.0665,-0.063,-0.0593,-0.0565,-0.0488,-0.0445,-0.0386,-0.0316,-0.0243,-0.0139,-0.0051,-0.0023,0.0048,0.0062,0.0077,0.0088,0.0112,0.0077,0.0103,0.0102,0.0132,0.0133,0.0134,0.0135,0,0,-0.068,-0.0673,-0.0671,-0.0667,-0.0609,-0.0574,-0.0529,-0.0454,-0.0418,-0.034,-0.0292,-0.0175,-0.0136,-0.0082,-0.0009,0.0001,-0.0001,0.0029,0.003,0.0047,0.0001,0.0048,0.0051,-0.0007,-0.0008,-0.0008,0.0034,0,-0.069,-0.0697,-0.0677,-0.0662,-0.0657,-0.0596,-0.0554,-0.0484,-0.0417,-0.0356,-0.0281,-0.0207,-0.0156,-0.0113,-0.0099,-0.0011,-0.0009,-0.0013,0.0034,0.0036,0.008,0.005,0.0093,0.0136,0.0033,0.0033,0.0033,0,-0.0694,-0.0701,-0.0706,-0.0687,-0.0677,-0.0654,-0.0586,-0.0537,-0.045,-0.04,-0.0346,-0.0278,-0.0211,-0.0185,-0.0107,-0.0117,-0.0071,-0.0026,-0.0024,0.0038,0.008,0.0153,0.0138,0.0178,0.0031,0.0031,0.0032,0,-0.0715,-0.0713,-0.0724,-0.0717,-0.0683,-0.0669,-0.0636,-0.0554,-0.0506,-0.0435,-0.0397,-0.0331,-0.0273,-0.0239,-0.0116,-0.0124,-0.0046,-0.0043,0.0033,0.0038,0.0095,0.0106,0.0123,-0.0032,-0.0032,-0.0032,-0.0032,0,-0.0729,-0.0734,-0.0743,-0.0748,-0.0748,-0.0707,-0.0677,-0.0631,-0.0558,-0.0481,-0.0432,-0.0359,-0.0291,-0.0214,-0.0146,-0.0043,-0.0071,0.0021,0.0044,0.0078,0.0086,0.0141,0.0152,-0.003,-0.003,-0.0031,-0.0031,0,-0.0745,-0.0753,-0.0768,-0.0762,-0.0763,-0.0761,-0.0714,-0.0671,-0.0612,-0.0517,-0.0494,-0.0385,-0.0279,-0.0202,-0.0105,-0.0055,0.0066,0.0061,0.0112,0.014,0.023,0.0236,0.0266,0.0328,0.0131,0.0132,0.0133,0,-0.0753,-0.0767,-0.0791,-0.0806,-0.0809,-0.0801,-0.0771,-0.0707,-0.0625,-0.0497,-0.0426,-0.0335,-0.0178,-0.0045,0.001,0.0103,0.0139,0.0197,0.0185,0.0236,0.0259,0.0245,0.0295,0.0245,0.0247,0.0249,0.025,0,-0.0765,-0.0778,-0.0798,-0.0829,-0.0827,-0.078,-0.0718,-0.0657,-0.0524,-0.0413,-0.0204,-0.009,-0.0006,0.0135,0.0188,0.0233,0.024,0.0232,0.0263,0.0328,0.0335,0.0407,0.023,0.0264,0.0263,0.0261,0.0261,0.026,-0.0771,-0.0797,-0.0822,-0.0831,-0.0801,-0.0678,-0.0583,-0.0469,-0.0288,-0.0014,0.0033,0.0286,0.0317,0.04,0.0379,0.0372,0.0346,0.0422,0.0421,0.0399,0.0464,0.0327,0.0399,0.0398,0.0397,0.0397,0.0397,0,-0.0758,-0.0783,-0.0811,-0.076,-0.0633,-0.0638,-0.0466,-0.0303,-0.0017,0.0191,0.0444,0.0718,0.0739,0.0669,0.0595,0.0588,0.0558,0.0595,0.058,0.0621,0.0486,0.0497,0.0619,0.0619,0.0619,0.0619,0.0619,0.0619,-0.0759,-0.0771,-0.0773,-0.0571,-0.0492,-0.0252,-0.0103,0.0092,0.0286,0.0685,0.0942,0.1111,0.1074,0.0823,0.073,0.0728,0.0769,0.0732,0.0762,0.0655,0.0638,0.0622,0.0635,0.0783,0.0783,0.0915,0.0916,0.0917]}],[{"header":{"parameterUnit":"m.s-1","parameterCategory":2,"la1":30.2991,"la2":30.254,"lo1":-89.0895,"lo2":-89.0444,"dy":0.0017,"dx":0.0017,"nx":28,"ny":28,"refTime":"2025-06-21T21:00:00:Z","depth":"2","parameterNumber":2,"parameterNumberName":"U-component_of_CURRENTS"},"data":[0,0,0,0,0,0,0,0,0,0,0,0,0,0,0,0,0,0,0,0,0,0,0,0,0,0,0,0,0,0,0,0,0,0,0,0,0,0,0,0,0,0,0,0,0,0,0,0,0,0,0,0,0,0,0,0,0,0,-0.1607,-0.1608,0,-0.172,-0.1722,-0.1723,-0.1798,-0.1799,-0.1799,-0.18,-0.1842,-0.1842,-0.1843,0,0,0,0,0,0,0,0,0,0,0,0,0,-0.1555,-0.1555,-0.1607,-0.1609,-0.161,-0.172,-0.1722,-0.1723,-0.1798,-0.1799,-0.1799,-0.18,-0.1841,-0.1842,-0.1843,0,0,0,0,0,0,0,0,0,0,0,0,0,-0.1613,-0.1555,-0.1607,-0.166,-0.1666,-0.172,-0.1722,-0.1724,-0.1798,-0.1799,-0.1799,-0.18,-0.1841,-0.1842,-0.1843,-0.1834,0,0,-0.1846,-0.1846,0,0,0,0,0,0,0,0,-0.161,-0.1615,-0.1651,-0.1657,-0.1664,-0.1746,-0.1719,-0.1757,-0.1798,-0.1748,-0.18,-0.18,-0.1802,-0.1807,-0.1827,-0.1836,-0.1838,-0.1846,-0.1847,-0.1847,-0.1847,0,0,0,0,0,0,0,-0.1605,-0.1611,-0.1652,-0.1653,-0.166,-0.1713,-0.1721,-0.1727,-0.1768,-0.1752,-0.1758,-0.177,-0.1805,-0.1826,-0.1829,-0.1838,-0.1846,-0.1847,-0.1847,-0.1848,-0.1842,-0.1841,0,0,0,0,0,0,-0.1585,-0.1607,-0.1648,-0.1655,-0.1638,-0.1713,-0.1722,-0.1719,-0.177,-0.1779,-0.177,-0.1773,-0.1824,-0.1827,-0.183,-0.181,-0.1847,-0.1848,-0.1849,-0.1842,-0.1842,-0.1841,0,0,0,0,0,0,-0.1583,-0.1587,-0.1644,-0.1635,-0.1646,-0.1712,-0.1708,-0.1721,-0.1751,-0.1784,-0.1792,-0.1788,-0.1825,-0.1829,-0.1846,-0.1813,-0.1848,-0.1849,-0.1843,-0.1842,-0.1841,-0.1777,0,0,0,0,0,0,-0.1581,-0.1585,-0.1585,-0.1633,-0.1645,-0.1659,-0.1708,-0.1722,-0.1756,-0.1763,-0.1801,-0.1806,-0.1826,-0.1845,-0.1847,-0.1815,-0.185,-0.1844,-0.1843,-0.1841,-0.178,-0.1774,-0.1769,0,0,0,0,0,-0.1579,-0.1571,-0.1583,-0.1589,-0.1638,-0.1658,-0.1668,-0.172,-0.1756,-0.1753,-0.1797,-0.1806,-0.1837,-0.1845,-0.1848,-0.1815,-0.1845,-0.1843,-0.1842,-0.1783,-0.1775,-0.1769,0,0,0,0,0,0,-0.1548,-0.1579,-0.1594,-0.1596,-0.1616,-0.167,-0.1681,-0.1719,-0.1755,-0.1768,-0.1806,-0.1813,-0.1802,-0.1827,-0.1835,-0.181,-0.1837,-0.1836,-0.1791,-0.1785,-0.1779,-0.1741,-0.1851,0,0,0,0,0,-0.1538,-0.1537,-0.1571,-0.1568,-0.1578,-0.163,-0.1651,-0.1682,-0.172,-0.1739,-0.1776,-0.1803,-0.1796,-0.1808,-0.1809,-0.181,-0.1797,-0.1788,-0.1782,-0.1777,-0.1749,-0.1712,-0.1699,-0.1835,-0.1835,-0.1835,0,0,-0.1523,-0.1541,-0.154,-0.1562,-0.1586,-0.1589,-0.1644,-0.1665,-0.1668,-0.1733,-0.1758,-0.1777,-0.1789,-0.178,-0.1778,-0.1801,-0.1734,-0.1775,-0.177,-0.1744,-0.1708,-0.1695,-0.1683,-0.1834,-0.1834,-0.1834,0,0,-0.1486,-0.1506,-0.1492,-0.1507,-0.1538,-0.1565,-0.1568,-0.1623,-0.1645,-0.1664,-0.1701,-0.1698,-0.1732,-0.172,-0.1717,-0.1679,-0.1693,-0.1698,-0.165,-0.1615,-0.1602,-0.1592,-0.1563,-0.155,-0.1709,-0.1708,-0.1708,0,-0.1468,-0.1459,-0.149,-0.1483,-0.1497,-0.1548,-0.1539,-0.1558,-0.1617,-0.1626,-0.1657,-0.1675,-0.1681,-0.1645,-0.1636,-0.1657,-0.1661,-0.1676,-0.1604,-0.1593,-0.1583,-0.1557,-0.1543,-0.1705,-0.1706,-0.1706,-0.1706,0,-0.1421,-0.1421,-0.1414,-0.1419,-0.143,-0.1433,-0.1461,-0.1481,-0.1521,-0.1545,-0.1534,-0.1553,-0.1564,-0.1561,-0.1587,-0.1526,-0.156,-0.1589,-0.1617,-0.1565,-0.1542,-0.1528,-0.1701,-0.1702,-0.1703,-0.1703,0,0,-0.1362,-0.1378,-0.1376,-0.1382,-0.1405,-0.1413,-0.1402,-0.141,-0.1417,-0.1441,-0.1436,-0.1409,-0.1442,-0.1439,-0.147,-0.1442,-0.137,-0.1496,-0.1496,-0.1458,-0.1311,-0.1238,-0.1218,-0.141,-0.1408,-0.1405,-0.1324,0,-0.1318,-0.13,-0.1316,-0.1305,-0.1306,-0.1343,-0.1335,-0.1348,-0.1369,-0.138,-0.1366,-0.1369,-0.1389,-0.1408,-0.1372,-0.1384,-0.1334,-0.1389,-0.1374,-0.1372,-0.1306,-0.1198,-0.1111,-0.1023,-0.1312,-0.131,-0.1308,0,-0.1269,-0.1272,-0.1251,-0.1275,-0.1277,-0.1273,-0.129,-0.129,-0.1294,-0.1311,-0.13,-0.1319,-0.1276,-0.1306,-0.1243,-0.1297,-0.1277,-0.1273,-0.1271,-0.1208,-0.1274,-0.1122,-0.0989,-0.1287,-0.1288,-0.129,-0.1291,0,-0.1234,-0.1231,-0.122,-0.1226,-0.1247,-0.1246,-0.1259,-0.127,-0.1273,-0.1273,-0.1277,-0.1246,-0.1236,-0.1203,-0.1185,-0.1229,-0.1115,-0.1176,-0.1073,-0.1071,-0.0987,-0.0979,-0.1077,-0.1077,-0.1077,-0.1078,-0.1078,0,-0.1197,-0.1191,-0.1207,-0.1206,-0.1201,-0.1226,-0.1222,-0.1236,-0.1242,-0.1228,-0.1244,-0.1216,-0.1212,-0.1164,-0.1151,-0.1054,-0.1077,-0.1013,-0.102,-0.0964,-0.0956,-0.1186,-0.12,-0.1075,-0.1075,-0.1076,-0.1076,0,-0.1162,-0.1172,-0.1166,-0.1181,-0.1187,-0.1186,-0.1206,-0.1199,-0.1218,-0.1198,-0.1196,-0.1182,-0.111,-0.1081,-0.102,-0.0993,-0.0927,-0.0883,-0.0815,-0.0812,-0.0922,-0.0934,-0.076,-0.0756,-0.0753,-0.075,-0.0748,0,-0.114,-0.1131,-0.1142,-0.114,-0.1146,-0.1154,-0.1152,-0.1181,-0.117,-0.1164,-0.1137,-0.1077,-0.1009,-0.0886,-0.08,-0.0711,-0.0799,-0.0606,-0.0635,-0.0851,-0.0878,-0.0895,-0.091,-0.0516,-0.0512,-0.0508,-0.0506,0,-0.1095,-0.1099,-0.1097,-0.1086,-0.1084,-0.1078,-0.1079,-0.107,-0.1087,-0.107,-0.1016,-0.0967,-0.083,-0.0682,-0.0564,-0.0514,-0.0619,-0.0536,-0.0748,-0.0609,-0.0614,-0.0643,-0.0668,-0.0477,-0.048,-0.0482,-0.0484,-0.0485,-0.1056,-0.1042,-0.1031,-0.1011,-0.1006,-0.097,-0.0936,-0.0939,-0.0904,-0.0842,-0.0869,-0.0758,-0.0705,-0.045,-0.0374,-0.0298,-0.0363,-0.0369,-0.0382,-0.0398,-0.0383,-0.0382,-0.0199,-0.02,-0.0202,-0.0202,-0.0203,0,-0.0989,-0.0971,-0.0952,-0.0911,-0.0855,-0.0885,-0.0851,-0.0796,-0.072,-0.0677,-0.0622,-0.0495,-0.0363,-0.0306,-0.0128,-0.0088,-0.0119,-0.0093,-0.0154,-0.018,-0.0204,-0.0184,0.0055,0.0055,0.0056,0.0056,0,0,-0.0951,-0.0898,-0.0874,-0.0748,-0.0722,-0.0623,-0.0582,-0.0533,-0.0477,-0.0382,-0.0318,-0.0321,-0.0288,-0.0141,-0.0078,0.0016,-0.0088,0.0039,-0.016,-0.0256,-0.0281,-0.0341,-0.0335,0,0,0,0,0]},{"header":{"parameterUnit":"m.s-1","parameterCategory":2,"la1":30.2991,"la2":30.254,"lo1":-89.0895,"lo2":-89.0444,"dy":0.0017,"dx":0.0017,"nx":28,"ny":28,"refTime":"2025-06-21T21:00:00:Z","depth":"2","parameterNumber":3,"parameterNumberName":"V-component_of_CURRENTS"},"data":[0,0,0,0,0,0,0,0,0,0,0,0,0,0,0,0,0,0,0,0,0,0,0,0,0,0,0,0,0,0,0,0,0,0,0,0,0,0,0,0,0,0,0,0,0,0,0,0,0,0,0,0,0,0,0,0,0,0,-0.0399,-0.0398,0,-0.0304,-0.0303,-0.0301,-0.0222,-0.0222,-0.0221,-0.0221,-0.0092,-0.009,-0.0087,0,0,0,0,0,0,0,0,0,0,0,0,0,-0.0473,-0.0472,-0.0399,-0.0398,-0.0397,-0.0304,-0.0303,-0.0301,-0.0223,-0.0222,-0.0221,-0.0221,-0.0093,-0.009,-0.0086,0,0,0,0,0,0,0,0,0,0,0,0,0,-0.0413,-0.0472,-0.0399,-0.0349,-0.0344,-0.0304,-0.0302,-0.0301,-0.0223,-0.0222,-0.0221,-0.022,-0.0094,-0.009,-0.0086,-0.0076,0,0,-0.0073,-0.0071,0,0,0,0,0,0,0,0,-0.0416,-0.041,-0.0357,-0.0352,-0.0346,-0.0277,-0.0282,-0.0225,-0.0223,-0.0265,-0.0221,-0.022,-0.0154,-0.0144,-0.0125,-0.007,-0.0065,-0.0072,-0.007,-0.0068,-0.0067,0,0,0,0,0,0,0,-0.0421,-0.0413,-0.0358,-0.0356,-0.035,-0.0318,-0.0309,-0.027,-0.0212,-0.0262,-0.0256,-0.0251,-0.015,-0.0129,-0.0121,-0.0063,-0.0073,-0.0069,-0.0066,-0.0064,0.0053,0.0054,0,0,0,0,0,0,-0.0441,-0.0418,-0.0361,-0.0356,-0.0383,-0.0318,-0.0307,-0.0297,-0.0213,-0.0201,-0.0252,-0.0248,-0.0137,-0.0126,-0.0116,-0.0083,-0.0068,-0.0064,-0.0061,0.0053,0.0053,0.0054,0,0,0,0,0,0,-0.0443,-0.0437,-0.0365,-0.0387,-0.0376,-0.0318,-0.0307,-0.0296,-0.0273,-0.0207,-0.0193,-0.0241,-0.0136,-0.0122,-0.0081,-0.0078,-0.0062,-0.0058,0.0052,0.0053,0.0054,-0.0027,0,0,0,0,0,0,-0.0446,-0.0438,-0.044,-0.0388,-0.0376,-0.0346,-0.0308,-0.0295,-0.0273,-0.0266,-0.0193,-0.018,-0.0134,-0.0088,-0.0077,-0.0072,-0.0055,0.0051,0.0053,0.0053,-0.0025,-0.003,-0.0033,0,0,0,0,0,-0.0449,-0.0453,-0.0441,-0.0434,-0.0379,-0.0347,-0.0337,-0.0291,-0.0273,-0.0266,-0.0216,-0.0182,-0.0073,-0.0085,-0.0072,-0.0065,0.0051,0.0052,0.0053,-0.0024,-0.0029,-0.0033,0,0,0,0,0,0,-0.0484,-0.0445,-0.0429,-0.0421,-0.0391,-0.0334,-0.0327,-0.0298,-0.0254,-0.0247,-0.0183,-0.0167,-0.0139,-0.0085,-0.01,-0.0025,-0.0002,0.0002,-0.0065,-0.0069,-0.0073,-0.0075,-0.0051,0,0,0,0,0,-0.0497,-0.0491,-0.0447,-0.0444,-0.0431,-0.0382,-0.0365,-0.0334,-0.029,-0.0269,-0.0218,-0.016,-0.0124,-0.0085,-0.005,-0.0004,0.0026,0.0014,0.001,0.0006,0.0016,0.0043,0.0042,0.0058,0.0058,0.0058,0,0,-0.051,-0.049,-0.0486,-0.0452,-0.0424,-0.0404,-0.0369,-0.0347,-0.0324,-0.0263,-0.022,-0.0189,-0.0122,-0.0082,-0.0059,-0.0031,0.0017,0.0008,0.0004,0.0016,0.0044,0.0042,0.0041,0.0059,0.0059,0.0058,0,0,-0.0533,-0.0517,-0.0516,-0.0494,-0.0461,-0.0428,-0.0427,-0.0373,-0.0344,-0.0308,-0.0265,-0.0228,-0.0155,-0.0104,-0.0071,-0.0069,-0.0027,-0.0053,-0.0048,-0.0023,-0.0024,-0.0025,-0.0004,-0.0002,-0.0028,-0.0028,-0.0028,0,-0.0548,-0.054,-0.0512,-0.0503,-0.0486,-0.0443,-0.0432,-0.0398,-0.0337,-0.0312,-0.0303,-0.021,-0.0164,-0.0106,-0.01,-0.0079,-0.0058,-0.0043,-0.0031,-0.0031,-0.0031,-0.0008,-0.0005,-0.0032,-0.0032,-0.0031,-0.0031,0,-0.056,-0.0556,-0.0556,-0.0527,-0.0507,-0.0494,-0.0447,-0.0421,-0.0389,-0.0348,-0.0304,-0.0249,-0.0182,-0.0167,-0.013,-0.0093,-0.008,-0.0067,-0.0029,-0.0038,-0.0012,-0.0008,-0.0037,-0.0036,-0.0035,-0.0034,0,0,-0.0576,-0.0566,-0.0564,-0.056,-0.0519,-0.0502,-0.0471,-0.0423,-0.0396,-0.035,-0.0312,-0.0253,-0.0223,-0.0182,-0.0137,-0.01,-0.0091,-0.0075,-0.0072,-0.007,-0.0039,-0.0026,-0.0019,-0.0082,-0.0081,-0.0081,-0.0028,0,-0.0588,-0.0592,-0.0574,-0.0567,-0.0561,-0.0518,-0.049,-0.0444,-0.04,-0.0354,-0.0298,-0.0255,-0.0227,-0.02,-0.0164,-0.0112,-0.008,-0.0106,-0.0014,-0.0011,-0.0012,-0.0014,-0.0018,0.0029,-0.0023,-0.0023,-0.0022,0,-0.0591,-0.0596,-0.0601,-0.0586,-0.0577,-0.0565,-0.0513,-0.0483,-0.041,-0.0377,-0.0323,-0.0278,-0.0212,-0.02,-0.0112,-0.0131,-0.0089,-0.0053,-0.005,-0.0001,0.0011,0.0036,0.0039,-0.0014,-0.0015,-0.0015,-0.0016,0,-0.061,-0.0608,-0.0618,-0.0612,-0.0587,-0.0578,-0.0556,-0.0491,-0.0458,-0.0392,-0.0361,-0.0287,-0.0243,-0.0188,-0.0102,-0.0108,-0.0015,-0.0015,0.0036,0.0038,0.0074,0.0077,0.0037,0.0037,0.0036,0.0036,0.0036,0,-0.062,-0.0625,-0.0634,-0.0638,-0.0641,-0.0609,-0.0588,-0.0551,-0.0491,-0.0448,-0.0378,-0.0327,-0.0239,-0.0166,-0.0107,-0.0016,-0.0017,0.0039,0.0055,0.0045,0.0045,0.0046,0.0046,0.0038,0.0038,0.0037,0.0037,0,-0.0632,-0.0639,-0.0653,-0.0652,-0.0653,-0.0654,-0.0622,-0.0599,-0.054,-0.0485,-0.0465,-0.0352,-0.0254,-0.0165,-0.006,-0.0015,0.0062,0.0093,0.0075,0.0087,0.0097,0.0092,0.0149,0.015,0.0151,0.0152,0.0153,0,-0.0638,-0.065,-0.0673,-0.0689,-0.0694,-0.0692,-0.0683,-0.0632,-0.0603,-0.0492,-0.0466,-0.0351,-0.0255,-0.0098,-0.0,0.0103,0.01,0.015,0.0139,0.01,0.011,0.0104,0.0099,0.0151,0.0152,0.0152,0.0152,0,-0.0648,-0.0662,-0.0679,-0.0718,-0.0732,-0.0735,-0.0721,-0.0705,-0.0629,-0.057,-0.0468,-0.0382,-0.0206,-0.0074,0.0062,0.012,0.0131,0.0162,0.0139,0.0119,0.0105,0.0113,0.0108,0.0156,0.0156,0.0156,0.0155,0.0155,-0.0655,-0.0678,-0.071,-0.0742,-0.0761,-0.0772,-0.0761,-0.073,-0.0681,-0.0567,-0.0495,-0.034,-0.0211,0.0003,0.0094,0.0185,0.0179,0.0196,0.0193,0.019,0.0177,0.0165,0.0225,0.0225,0.0225,0.0225,0.0225,0,-0.0661,-0.0692,-0.0728,-0.0766,-0.0785,-0.0791,-0.0774,-0.0735,-0.0674,-0.0564,-0.0462,-0.0292,-0.0143,0.0005,0.0153,0.0222,0.0213,0.0234,0.0207,0.0203,0.0199,0.0185,0.0236,0.0236,0.0236,0.0236,0,0,-0.0666,-0.0708,-0.0733,-0.0777,-0.0797,-0.0796,-0.0783,-0.0717,-0.0629,-0.0496,-0.0377,-0.0277,-0.0104,-0.0012,0.0084,0.0172,0.0166,0.018,0.0164,0.0117,0.0113,0.0174,0.0148,0,0,0,0,0]}],[{"header":{"parameterUnit":"m.s-1","parameterCategory":2,"la1":30.2991,"la2":30.254,"lo1":-89.0895,"lo2":-89.0444,"dy":0.0017,"dx":0.0017,"nx":28,"ny":28,"refTime":"2025-06-21T21:00:00:Z","depth":"4","parameterNumber":2,"parameterNumberName":"U-component_of_CURRENTS"},"data":[0,0,0,0,0,0,0,0,0,0,0,0,0,0,0,0,0,0,0,0,0,0,0,0,0,0,0,0,0,0,0,0,0,0,0,0,0,0,0,0,0,0,0,0,0,0,0,0,0,0,0,0,0,0,0,0,0,0,-0.0978,-0.0978,0,-0.095,-0.095,-0.095,-0.0969,-0.097,-0.0971,-0.0971,-0.1013,-0.1014,-0.1014,0,0,0,0,0,0,0,0,0,0,0,0,0,-0.1027,-0.1026,-0.0978,-0.0978,-0.0977,-0.095,-0.095,-0.095,-0.0969,-0.097,-0.0971,-0.0972,-0.1013,-0.1014,-0.1014,0,0,0,0,0,0,0,0,0,0,0,0,0,-0.1003,-0.1026,-0.0978,-0.0984,-0.0984,-0.095,-0.095,-0.0949,-0.0968,-0.097,-0.0971,-0.0972,-0.1013,-0.1014,-0.1014,-0.0989,0,0,-0.1015,-0.1015,0,0,0,0,0,0,0,0,-0.1004,-0.1001,-0.0983,-0.0984,-0.0984,-0.0965,-0.0983,-0.0966,-0.0968,-0.0974,-0.0972,-0.0973,-0.1003,-0.1004,-0.0994,-0.0991,-0.0993,-0.1015,-0.1015,-0.1016,-0.1016,0,0,0,0,0,0,0,-0.1006,-0.1002,-0.0967,-0.0983,-0.0983,-0.0981,-0.0979,-0.0979,-0.0982,-0.0974,-0.0975,-0.0972,-0.1004,-0.0994,-0.0996,-0.0994,-0.1015,-0.1016,-0.1016,-0.1016,-0.1027,-0.1027,0,0,0,0,0,0,-0.1009,-0.1004,-0.0968,-0.0966,-0.0998,-0.0979,-0.0977,-0.0969,-0.0981,-0.0983,-0.0971,-0.0973,-0.0992,-0.0995,-0.0997,-0.1012,-0.1016,-0.1016,-0.1016,-0.1027,-0.1027,-0.1027,0,0,0,0,0,0,-0.101,-0.1006,-0.0969,-0.0985,-0.098,-0.0977,-0.0968,-0.0968,-0.098,-0.0978,-0.0982,-0.0985,-0.0994,-0.0997,-0.1014,-0.1013,-0.1016,-0.1017,-0.1027,-0.1027,-0.1027,-0.1015,0,0,0,0,0,0,-0.1012,-0.1007,-0.1016,-0.0985,-0.0979,-0.0956,-0.0967,-0.0966,-0.0974,-0.0978,-0.0991,-0.0995,-0.0995,-0.1013,-0.1014,-0.1013,-0.1017,-0.1027,-0.1027,-0.1027,-0.1015,-0.1015,-0.1014,0,0,0,0,0,-0.1014,-0.1017,-0.1017,-0.1013,-0.0988,-0.0956,-0.0953,-0.0955,-0.0974,-0.0972,-0.0989,-0.0996,-0.1015,-0.1014,-0.1015,-0.1014,-0.1027,-0.1027,-0.1027,-0.1016,-0.1015,-0.1014,0,0,0,0,0,0,-0.1041,-0.1018,-0.1017,-0.1014,-0.0991,-0.096,-0.0963,-0.0964,-0.0973,-0.0989,-0.0996,-0.1,-0.1011,-0.1017,-0.1015,-0.1018,-0.1022,-0.1022,-0.1013,-0.1012,-0.1011,-0.1017,-0.1017,0,0,0,0,0,-0.1051,-0.1049,-0.1018,-0.1015,-0.1006,-0.0989,-0.0984,-0.0981,-0.0977,-0.0983,-0.099,-0.1003,-0.1006,-0.1016,-0.1015,-0.102,-0.102,-0.1021,-0.102,-0.102,-0.1026,-0.1034,-0.1034,-0.1028,-0.1028,-0.1028,0,0,-0.1058,-0.1047,-0.1046,-0.1022,-0.1007,-0.0988,-0.099,-0.098,-0.0974,-0.0987,-0.0995,-0.1,-0.1006,-0.1007,-0.1013,-0.1017,-0.1017,-0.102,-0.1019,-0.1026,-0.1034,-0.1034,-0.1035,-0.1028,-0.1028,-0.1028,0,0,-0.1054,-0.1062,-0.1051,-0.1035,-0.1017,-0.1004,-0.1006,-0.0982,-0.0986,-0.0984,-0.0993,-0.1002,-0.1007,-0.1005,-0.1008,-0.1006,-0.101,-0.101,-0.1015,-0.1022,-0.1023,-0.1024,-0.1002,-0.1,-0.1014,-0.1014,-0.1014,0,-0.1064,-0.1045,-0.1042,-0.1024,-0.1015,-0.1013,-0.0993,-0.099,-0.0978,-0.0984,-0.0992,-0.1003,-0.1003,-0.1008,-0.1004,-0.1003,-0.1005,-0.1016,-0.1021,-0.1022,-0.1023,-0.1001,-0.1,-0.1013,-0.1013,-0.1013,-0.1013,0,-0.1035,-0.1033,-0.1025,-0.1005,-0.0997,-0.0981,-0.097,-0.0975,-0.0987,-0.0983,-0.0996,-0.0996,-0.1006,-0.1002,-0.1001,-0.1008,-0.1004,-0.1015,-0.1022,-0.1023,-0.0999,-0.0998,-0.1012,-0.1012,-0.1013,-0.1013,0,0,-0.1011,-0.1005,-0.1003,-0.0998,-0.0987,-0.0972,-0.0975,-0.0966,-0.0978,-0.0982,-0.0992,-0.099,-0.1005,-0.1008,-0.1011,-0.1016,-0.1004,-0.1021,-0.1022,-0.0997,-0.1005,-0.0903,-0.0892,-0.1026,-0.1026,-0.1026,-0.0977,0,-0.0983,-0.096,-0.0962,-0.0946,-0.0932,-0.0943,-0.0944,-0.0949,-0.0963,-0.0976,-0.0991,-0.1002,-0.1005,-0.1013,-0.1019,-0.1014,-0.1006,-0.1015,-0.1011,-0.101,-0.0918,-0.0889,-0.1027,-0.0977,-0.0976,-0.0976,-0.0976,0,-0.0941,-0.0936,-0.0918,-0.0923,-0.0918,-0.0915,-0.093,-0.0929,-0.0956,-0.097,-0.0997,-0.1014,-0.1023,-0.1027,-0.1024,-0.1035,-0.1018,-0.101,-0.1009,-0.0921,-0.0907,-0.0983,-0.0974,-0.0975,-0.0975,-0.0975,-0.0975,0,-0.0916,-0.0904,-0.0897,-0.0894,-0.0898,-0.0903,-0.0909,-0.0931,-0.0934,-0.0975,-0.0984,-0.1016,-0.1018,-0.1028,-0.1004,-0.1024,-0.0988,-0.1013,-0.0901,-0.0893,-0.1008,-0.1008,-0.1003,-0.1003,-0.1003,-0.1004,-0.1004,0,-0.0878,-0.0873,-0.089,-0.0884,-0.0879,-0.0891,-0.0895,-0.0912,-0.0936,-0.0931,-0.0984,-0.0978,-0.1022,-0.1007,-0.1001,-0.0929,-0.0983,-0.0887,-0.0872,-0.1,-0.1,-0.1005,-0.1006,-0.1002,-0.1002,-0.1002,-0.1003,0,-0.0845,-0.0857,-0.0851,-0.0863,-0.0867,-0.0866,-0.0876,-0.0874,-0.091,-0.0907,-0.0918,-0.0947,-0.0917,-0.0927,-0.0917,-0.0894,-0.0857,-0.0816,-0.092,-0.0914,-0.0761,-0.0762,-0.0698,-0.0694,-0.0691,-0.0688,-0.0686,0,-0.0822,-0.0817,-0.0832,-0.0828,-0.0833,-0.0837,-0.083,-0.0858,-0.085,-0.0867,-0.085,-0.0841,-0.0845,-0.0743,-0.0774,-0.0738,-0.0731,-0.0715,-0.0766,-0.0737,-0.073,-0.0736,-0.0741,-0.068,-0.0679,-0.0679,-0.0678,0,-0.0776,-0.0794,-0.0791,-0.078,-0.0775,-0.0759,-0.0754,-0.0741,-0.0758,-0.0806,-0.0752,-0.0731,-0.0679,-0.0668,-0.0626,-0.0614,-0.0738,-0.068,-0.0689,-0.0736,-0.0714,-0.0712,-0.0721,-0.0666,-0.0667,-0.0669,-0.0669,0,-0.0745,-0.0733,-0.0731,-0.0707,-0.0703,-0.066,-0.0674,-0.0642,-0.0635,-0.0663,-0.0638,-0.063,-0.0655,-0.0599,-0.0569,-0.0534,-0.0541,-0.0551,-0.0567,-0.058,-0.0565,-0.0521,-0.0385,0,0,0,0,0,-0.0704,-0.0671,-0.0649,-0.0611,-0.0605,-0.0592,-0.0601,-0.0619,-0.0645,-0.0579,-0.0605,-0.0553,-0.0502,-0.0508,-0.0446,-0.0515,-0.0545,-0.0443,-0.0566,-0.06,-0.0614,-0.0607,0,0,0,0,0,0,-0.067,-0.0655,-0.0621,-0.0526,-0.0486,-0.0457,-0.0459,-0.0485,-0.0454,-0.0498,-0.0468,-0.0512,-0.0468,-0.0512,-0.0429,-0.0429,-0.0494,-0.0449,-0.0447,-0.0592,-0.0605,-0.0616,-0.0613,0,0,0,0,0]},{"header":{"parameterUnit":"m.s-1","parameterCategory":2,"la1":30.2991,"la2":30.254,"lo1":-89.0895,"lo2":-89.0444,"dy":0.0017,"dx":0.0017,"nx":28,"ny":28,"refTime":"2025-06-21T21:00:00:Z","depth":"4","parameterNumber":3,"parameterNumberName":"V-component_of_CURRENTS"},"data":[0,0,0,0,0,0,0,0,0,0,0,0,0,0,0,0,0,0,0,0,0,0,0,0,0,0,0,0,0,0,0,0,0,0,0,0,0,0,0,0,0,0,0,0,0,0,0,0,0,0,0,0,0,0,0,0,0,0,-0.0292,-0.0292,0,-0.0275,-0.0275,-0.0275,-0.0265,-0.0265,-0.0265,-0.0264,-0.0259,-0.0259,-0.0259,0,0,0,0,0,0,0,0,0,0,0,0,0,-0.0318,-0.0318,-0.0292,-0.0292,-0.0292,-0.0275,-0.0275,-0.0275,-0.0265,-0.0265,-0.0265,-0.0264,-0.026,-0.0259,-0.0259,0,0,0,0,0,0,0,0,0,0,0,0,0,-0.0305,-0.0317,-0.0292,-0.0284,-0.0283,-0.0275,-0.0275,-0.0275,-0.0265,-0.0265,-0.0265,-0.0264,-0.026,-0.0259,-0.0259,-0.0261,0,0,-0.0259,-0.0259,0,0,0,0,0,0,0,0,-0.0306,-0.0304,-0.0286,-0.0285,-0.0284,-0.0272,-0.0282,-0.0271,-0.0265,-0.0272,-0.0264,-0.0264,-0.0265,-0.0264,-0.0261,-0.0261,-0.0261,-0.0259,-0.0259,-0.0259,-0.0259,0,0,0,0,0,0,0,-0.0306,-0.0305,-0.0286,-0.0285,-0.0284,-0.0283,-0.0281,-0.028,-0.027,-0.0271,-0.0271,-0.0268,-0.0264,-0.0261,-0.0261,-0.026,-0.0259,-0.0259,-0.0259,-0.0259,-0.0258,-0.0258,0,0,0,0,0,0,-0.0308,-0.0305,-0.0286,-0.0285,-0.0294,-0.0282,-0.028,-0.0276,-0.0269,-0.0268,-0.0268,-0.0268,-0.0262,-0.0261,-0.0261,-0.0265,-0.0259,-0.0259,-0.0259,-0.0258,-0.0258,-0.0258,0,0,0,0,0,0,-0.0308,-0.0306,-0.0287,-0.0295,-0.0292,-0.0282,-0.0277,-0.0276,-0.0277,-0.0267,-0.0266,-0.0272,-0.0262,-0.0261,-0.0261,-0.0265,-0.0259,-0.0259,-0.0258,-0.0258,-0.0258,-0.0271,0,0,0,0,0,0,-0.0309,-0.0307,-0.0311,-0.0295,-0.0292,-0.0287,-0.0277,-0.0275,-0.0275,-0.0274,-0.0269,-0.0268,-0.0261,-0.0261,-0.0261,-0.0264,-0.0259,-0.0258,-0.0258,-0.0258,-0.0271,-0.0272,-0.0273,0,0,0,0,0,-0.031,-0.0316,-0.0311,-0.0309,-0.0296,-0.0287,-0.0286,-0.0278,-0.0276,-0.0279,-0.0272,-0.0269,-0.0261,-0.0261,-0.0261,-0.0264,-0.0258,-0.0258,-0.0258,-0.027,-0.0271,-0.0272,0,0,0,0,0,0,-0.0333,-0.0315,-0.0309,-0.031,-0.0301,-0.0286,-0.029,-0.0283,-0.028,-0.0281,-0.0271,-0.0269,-0.0272,-0.0266,-0.0266,-0.0263,-0.0259,-0.0259,-0.0268,-0.0269,-0.027,-0.0253,-0.0259,0,0,0,0,0,-0.0339,-0.0339,-0.032,-0.0324,-0.0319,-0.0306,-0.0304,-0.0296,-0.0288,-0.0287,-0.0282,-0.0276,-0.0271,-0.0269,-0.0266,-0.0265,-0.0241,-0.0267,-0.0267,-0.0268,-0.0253,-0.0212,-0.0207,-0.0258,-0.0258,-0.0258,0,0,-0.0352,-0.0342,-0.0343,-0.033,-0.0323,-0.0316,-0.0305,-0.0303,-0.0299,-0.0288,-0.0288,-0.0284,-0.0273,-0.0271,-0.0271,-0.0266,-0.0245,-0.0268,-0.0269,-0.0253,-0.0212,-0.0206,-0.0202,-0.0258,-0.0258,-0.0258,0,0,-0.0371,-0.0365,-0.0367,-0.0358,-0.0347,-0.0335,-0.0335,-0.032,-0.0315,-0.0313,-0.0302,-0.0291,-0.0295,-0.0275,-0.0268,-0.0271,-0.0254,-0.0281,-0.0268,-0.0229,-0.0224,-0.0219,-0.0199,-0.0192,-0.0278,-0.0278,-0.0278,0,-0.0385,-0.0383,-0.0369,-0.0366,-0.0361,-0.0343,-0.0341,-0.0332,-0.0321,-0.031,-0.0318,-0.0294,-0.029,-0.0264,-0.0266,-0.0271,-0.0253,-0.0267,-0.0229,-0.0224,-0.0218,-0.0198,-0.019,-0.0279,-0.0279,-0.0279,-0.0279,0,-0.0397,-0.0399,-0.0401,-0.0387,-0.0381,-0.0379,-0.0358,-0.0352,-0.0346,-0.0329,-0.0311,-0.0298,-0.0276,-0.028,-0.0275,-0.0239,-0.0242,-0.0238,-0.0224,-0.0214,-0.0194,-0.0185,-0.028,-0.0279,-0.0279,-0.0279,0,0,-0.0411,-0.0409,-0.041,-0.041,-0.0391,-0.0386,-0.0375,-0.0352,-0.0339,-0.0325,-0.0303,-0.0286,-0.0269,-0.0258,-0.0248,-0.0213,-0.0173,-0.0212,-0.021,-0.0188,-0.0098,-0.0121,-0.0114,-0.0164,-0.0163,-0.0161,-0.0105,0,-0.0422,-0.0429,-0.042,-0.0424,-0.0422,-0.0401,-0.0392,-0.0369,-0.035,-0.0326,-0.029,-0.0272,-0.0263,-0.0257,-0.0217,-0.0188,-0.0149,-0.019,-0.0113,-0.0111,-0.0129,-0.0104,-0.0156,-0.0098,-0.0096,-0.0095,-0.0094,0,-0.0424,-0.0431,-0.0442,-0.0438,-0.0435,-0.0436,-0.041,-0.0398,-0.0352,-0.0335,-0.0293,-0.0268,-0.0216,-0.0215,-0.0131,-0.016,-0.0123,-0.0096,-0.0093,-0.0098,-0.0117,-0.0106,-0.0079,-0.008,-0.0081,-0.0082,-0.0083,0,-0.0432,-0.044,-0.0453,-0.0452,-0.0445,-0.0447,-0.044,-0.0403,-0.0387,-0.0338,-0.0318,-0.0253,-0.0225,-0.0161,-0.0109,-0.0117,-0.0021,-0.0025,-0.0004,-0.0006,0.0002,-0.0003,0.0053,0.0053,0.0053,0.0053,0.0052,0,-0.0434,-0.0444,-0.0465,-0.047,-0.0482,-0.0468,-0.0464,-0.0444,-0.0406,-0.0379,-0.0325,-0.0287,-0.0208,-0.0148,-0.0099,-0.0031,-0.0009,0.0012,0.0016,-0.0009,-0.0016,0.0007,0.0001,0.0055,0.0054,0.0054,0.0053,0,-0.0434,-0.0448,-0.0467,-0.0481,-0.0488,-0.0497,-0.0491,-0.048,-0.0443,-0.0407,-0.0391,-0.0305,-0.0228,-0.0155,-0.0056,-0.0023,0.0043,0.0064,0.0023,0.0021,0.0029,0.0022,0.0101,0.0101,0.01,0.01,0.01,0,-0.0432,-0.0445,-0.0482,-0.0502,-0.0515,-0.0527,-0.0531,-0.0504,-0.0488,-0.0416,-0.0396,-0.0311,-0.0252,-0.0127,-0.0053,0.0043,0.0055,0.0082,0.0074,0.0043,0.0039,0.0032,0.0025,0.01,0.01,0.01,0.01,0,-0.043,-0.0453,-0.0473,-0.0518,-0.0542,-0.0555,-0.0559,-0.0546,-0.0504,-0.0473,-0.039,-0.0311,-0.0221,-0.0124,-0.0054,0.0016,0.0059,0.0082,0.0083,0.0075,0.0043,0.0038,0.0031,0.01,0.01,0.01,0.01,0,-0.0434,-0.0455,-0.0493,-0.0528,-0.056,-0.0574,-0.0572,-0.0547,-0.0522,-0.0443,-0.0416,-0.0309,-0.0243,-0.0137,-0.007,-0.0009,0.001,0.0023,0.0027,0.0028,-0.0015,-0.0068,-0.0027,0,0,0,0,0,-0.0434,-0.0462,-0.0498,-0.0535,-0.0565,-0.0583,-0.0585,-0.0574,-0.0535,-0.0483,-0.0447,-0.0361,-0.0235,-0.017,-0.0111,-0.008,0.0009,-0.001,0.0023,0.0098,0.0098,0.0057,0,0,0,0,0,0,-0.0437,-0.0476,-0.0497,-0.0534,-0.0557,-0.0583,-0.0586,-0.0561,-0.0525,-0.0477,-0.0408,-0.0358,-0.0236,-0.027,-0.0111,-0.009,-0.0064,0.0054,0.0055,0.0098,0.0098,0.0098,0.0056,0,0,0,0,0]}]]